TimeEDT,TemperatureF,Dew PointF,Humidity,Sea Level PressureIn,VisibilityMPH,Wind Direction,Wind SpeedMPH,Gust SpeedMPH,PrecipitationIn,Events,Conditions,WindDirDegrees,DateUTC
12:58 AM,75.4,74.8,98,30.02,10.0,SW,4.6,-,N/A,,Overcast,230,2013-07-11 04:58:00
1:58 AM,74.5,74.1,99,30.02,10.0,West,1.2,-,N/A,,Clear,280,2013-07-11 05:58:00
2:58 AM,73.8,73.8,100,30.01,10.0,Calm,Calm,-,N/A,,Clear,0,2013-07-11 06:58:00
3:58 AM,73.2,73.2,100,30.00,10.0,SSE,2.3,-,N/A,,Clear,150,2013-07-11 07:58:00
4:23 AM,73.4,73.4,100,29.99,9.0,SSW,3.5,-,N/A,,Clear,200,2013-07-11 08:23:00
4:28 AM,73.4,73.4,100,29.99,10.0,WSW,2.3,-,N/A,,Clear,240,2013-07-11 08:28:00
4:58 AM,72.9,72.9,100,29.99,10.0,ESE,3.5,-,N/A,,Clear,110,2013-07-11 08:58:00
5:43 AM,71.6,71.6,100,29.98,9.0,SW,1.2,-,N/A,,Clear,230,2013-07-11 09:43:00
5:48 AM,71.6,71.6,100,29.98,10.0,West,2.3,-,N/A,,Clear,260,2013-07-11 09:48:00
5:58 AM,72.3,72.3,100,29.99,10.0,Calm,Calm,-,N/A,,Clear,0,2013-07-11 09:58:00
6:58 AM,72.3,72.3,100,29.99,10.0,Calm,Calm,-,N/A,,Partly Cloudy,0,2013-07-11 10:58:00
7:58 AM,75.4,75.2,99,30.00,10.0,SW,3.5,-,N/A,,Clear,220,2013-07-11 11:58:00
8:58 AM,78.3,76.5,94,29.99,10.0,SSW,4.6,-,N/A,,Partly Cloudy,200,2013-07-11 12:58:00
9:58 AM,81.5,76.5,85,30.00,10.0,South,3.5,-,N/A,,Mostly Cloudy,190,2013-07-11 13:58:00
10:08 AM,82.4,77.0,84,29.99,10.0,West,4.6,-,N/A,,Overcast,260,2013-07-11 14:08:00
10:43 AM,82.4,75.2,79,29.99,10.0,SW,3.5,-,N/A,,Mostly Cloudy,220,2013-07-11 14:43:00
10:58 AM,83.5,76.3,79,30.00,10.0,Variable,3.5,-,N/A,,Partly Cloudy,0,2013-07-11 14:58:00
11:58 AM,86.0,75.7,71,29.99,10.0,Variable,6.9,-,N/A,,Mostly Cloudy,0,2013-07-11 15:58:00
12:08 PM,87.8,75.2,66,29.97,10.0,SW,9.2,-,N/A,,Mostly Cloudy,220,2013-07-11 16:08:00
12:58 PM,88.9,75.7,65,29.97,10.0,SSW,9.2,-,N/A,,Scattered Clouds,200,2013-07-11 16:58:00
1:58 PM,88.9,75.4,64,29.95,10.0,SSW,10.4,-,N/A,,Mostly Cloudy,210,2013-07-11 17:58:00
2:58 PM,90.0,74.5,60,29.93,10.0,Variable,6.9,-,N/A,,Mostly Cloudy,0,2013-07-11 18:58:00
3:58 PM,88.7,76.1,66,29.91,10.0,SE,6.9,-,N/A,,Mostly Cloudy,140,2013-07-11 19:58:00
4:58 PM,88.5,78.3,72,29.89,10.0,ESE,10.4,-,N/A,,Clear,120,2013-07-11 20:58:00
5:58 PM,84.7,76.1,75,29.88,10.0,SE,11.5,19.6,N/A,,Clear,140,2013-07-11 21:58:00
6:31 PM,80.6,75.2,84,29.87,10.0,SSE,8.1,-,N/A,Thunderstorm,Thunderstorm,160,2013-07-11 22:31:00
6:46 PM,80.6,75.2,84,29.88,10.0,SSE,5.8,-,N/A,,Partly Cloudy,150,2013-07-11 22:46:00
6:58 PM,80.8,75.6,84,29.90,10.0,Variable,5.8,-,N/A,,Mostly Cloudy,0,2013-07-11 22:58:00
7:58 PM,80.4,77.2,90,29.92,10.0,WNW,16.1,21.9,N/A,,Overcast,290,2013-07-11 23:58:00
7:59 PM,80.6,77.0,89,29.91,10.0,WNW,15.0,21.9,N/A,,Light Drizzle,300,2013-07-11 23:59:00
8:07 PM,77.0,73.4,89,29.90,10.0,NW,5.8,21.9,N/A,,Overcast,310,2013-07-12 00:07:00
8:42 PM,78.8,73.4,83,29.93,10.0,SW,18.4,27.6,N/A,Thunderstorm,Light Drizzle,230,2013-07-12 00:42:00
8:43 PM,78.8,73.4,83,29.92,10.0,SW,16.1,27.6,N/A,Rain-Thunderstorm,Light Thunderstorms and Rain,230,2013-07-12 00:43:00
8:48 PM,77.0,71.6,83,29.91,4.0,WSW,20.7,27.6,N/A,Rain-Thunderstorm,Heavy Thunderstorms and Rain,250,2013-07-12 00:48:00
8:50 PM,75.2,71.6,89,29.91,3.0,West,21.9,29.9,N/A,Rain-Thunderstorm,Heavy Thunderstorms and Rain,260,2013-07-12 00:50:00
8:55 PM,73.4,71.6,94,29.91,1.5,West,15.0,29.9,N/A,Rain-Thunderstorm,Heavy Thunderstorms and Rain,260,2013-07-12 00:55:00
8:58 PM,73.4,71.6,94,29.93,1.5,WSW,11.5,29.9,0.16,Rain-Thunderstorm,Heavy Thunderstorms and Rain,250,2013-07-12 00:58:00
9:03 PM,73.4,71.6,94,29.91,2.0,SW,5.8,-,N/A,Rain-Thunderstorm,Heavy Thunderstorms and Rain,220,2013-07-12 01:03:00
9:13 PM,73.4,71.6,94,29.92,1.5,WSW,3.5,-,N/A,Rain-Thunderstorm,Heavy Thunderstorms and Rain,250,2013-07-12 01:13:00
9:23 PM,73.4,73.4,100,29.91,2.5,Calm,Calm,-,N/A,Rain-Thunderstorm,Thunderstorms and Rain,0,2013-07-12 01:23:00
9:28 PM,73.4,73.4,100,29.91,6.0,Calm,Calm,-,N/A,Rain-Thunderstorm,Thunderstorms and Rain,0,2013-07-12 01:28:00
9:46 PM,73.4,73.4,100,29.92,8.0,Variable,5.8,18.4,N/A,Rain-Thunderstorm,Light Rain,0,2013-07-12 01:46:00
9:51 PM,75.2,75.2,100,29.91,8.0,Variable,5.8,-,N/A,Rain-Thunderstorm,Heavy Rain,0,2013-07-12 01:51:00
9:56 PM,75.2,75.2,100,29.91,6.0,SW,5.8,-,N/A,Rain,Heavy Rain,220,2013-07-12 01:56:00
9:58 PM,74.7,74.7,100,29.92,6.0,SSW,6.9,-,0.43,Rain,Heavy Rain,210,2013-07-12 01:58:00
10:08 PM,75.2,75.2,100,29.92,7.0,SSW,3.5,-,N/A,Rain,Heavy Rain,200,2013-07-12 02:08:00
10:23 PM,75.2,75.2,100,29.91,5.0,Calm,Calm,-,N/A,Rain,Heavy Rain,0,2013-07-12 02:23:00
10:48 PM,75.2,75.2,100,29.90,10.0,SSE,5.8,-,N/A,Rain,Light Rain,150,2013-07-12 02:48:00
10:58 PM,75.2,75.2,100,29.92,10.0,SW,5.8,-,0.12,Rain,Light Rain,220,2013-07-12 02:58:00
11:21 PM,75.2,75.2,100,29.92,10.0,SSE,2.3,-,N/A,,Clear,160,2013-07-12 03:21:00
11:41 PM,75.2,75.2,100,29.93,10.0,SE,2.3,-,N/A,,Mostly Cloudy,130,2013-07-12 03:41:00
11:46 PM,75.2,75.2,100,29.92,10.0,Calm,Calm,-,N/A,,Mostly Cloudy,0,2013-07-12 03:46:00
11:58 PM,74.7,74.7,100,29.93,10.0,NNW,1.2,-,0.01,,Mostly Cloudy,340,2013-07-12 03:58:00